TimeCDT,TemperatureF,Dew PointF,Humidity,Sea Level PressureIn,VisibilityMPH,Wind Direction,Wind SpeedMPH,Gust SpeedMPH,PrecipitationIn,Events,Conditions,WindDirDegrees,DateUTC
12:11 AM,53.6,37.4,54,29.93,10.0,Calm,Calm,-,N/A,,Mostly Cloudy,0,2013-06-15 05:11:00
12:31 AM,51.8,37.4,58,29.93,10.0,Calm,Calm,-,N/A,,Mostly Cloudy,0,2013-06-15 05:31:00
12:51 AM,51.8,37.4,58,29.92,10.0,Calm,Calm,-,N/A,,Mostly Cloudy,0,2013-06-15 05:51:00
1:11 AM,51.8,37.4,58,29.91,10.0,NE,3.5,-,N/A,,Mostly Cloudy,40,2013-06-15 06:11:00
1:31 AM,50.0,37.4,62,29.90,10.0,Calm,Calm,-,N/A,,Scattered Clouds,0,2013-06-15 06:31:00
1:51 AM,50.0,39.2,66,29.90,10.0,Calm,Calm,-,N/A,,Mostly Cloudy,0,2013-06-15 06:51:00
2:11 AM,50.0,39.2,66,29.90,10.0,Calm,Calm,-,N/A,,Overcast,0,2013-06-15 07:11:00
2:31 AM,51.8,41.0,67,29.92,10.0,Calm,Calm,-,N/A,Thunderstorm,Thunderstorm,0,2013-06-15 07:31:00
2:51 AM,51.8,42.8,71,29.92,7.0,East,6.9,-,0.06,Rain-Thunderstorm,Thunderstorms and Rain,80,2013-06-15 07:51:00
3:11 AM,50.0,44.6,82,29.94,10.0,North,4.6,-,0.03,Rain-Thunderstorm,Thunderstorms and Rain,350,2013-06-15 08:11:00
3:31 AM,48.2,44.6,87,29.90,7.0,Calm,Calm,-,0.15,Rain-Thunderstorm,Light Thunderstorms and Rain,0,2013-06-15 08:31:00
3:52 AM,48.2,44.6,87,29.90,10.0,Calm,Calm,-,0.15,Thunderstorm,Overcast,0,2013-06-15 08:52:00
4:11 AM,48.2,44.6,87,29.90,10.0,NNE,3.5,-,N/A,Thunderstorm,Overcast,30,2013-06-15 09:11:00
4:31 AM,48.2,44.6,87,29.89,10.0,Calm,Calm,-,N/A,,Overcast,0,2013-06-15 09:31:00
4:51 AM,50.0,44.6,82,29.90,10.0,Calm,Calm,-,N/A,Thunderstorm,Overcast,0,2013-06-15 09:51:00
5:11 AM,50.0,44.6,82,29.89,10.0,Calm,Calm,-,N/A,,Overcast,0,2013-06-15 10:11:00
5:32 AM,51.8,46.4,82,29.90,10.0,Calm,Calm,-,N/A,,Overcast,0,2013-06-15 10:32:00
5:51 AM,51.8,46.4,82,29.89,10.0,Calm,Calm,-,0.01,Rain,Light Rain,0,2013-06-15 10:51:00
6:11 AM,51.8,46.4,82,29.89,10.0,Calm,Calm,-,0.01,Rain-Thunderstorm,Light Thunderstorms and Rain,0,2013-06-15 11:11:00
6:32 AM,51.8,46.4,82,29.89,10.0,Calm,Calm,-,0.01,,Overcast,0,2013-06-15 11:32:00
6:51 AM,51.8,46.4,82,29.89,10.0,ENE,4.6,-,0.01,,Overcast,70,2013-06-15 11:51:00
7:11 AM,50.0,44.6,82,29.90,10.0,Calm,Calm,-,N/A,,Overcast,0,2013-06-15 12:11:00
7:32 AM,50.0,44.6,82,29.89,10.0,ENE,3.5,-,N/A,,Overcast,60,2013-06-15 12:32:00
7:51 AM,50.0,44.6,82,29.89,10.0,Calm,Calm,-,N/A,,Overcast,0,2013-06-15 12:51:00
8:11 AM,51.8,46.4,82,29.89,10.0,Calm,Calm,-,N/A,,Overcast,0,2013-06-15 13:11:00
8:32 AM,51.8,46.4,82,29.89,10.0,Calm,Calm,-,N/A,,Overcast,0,2013-06-15 13:32:00
8:51 AM,51.8,46.4,82,29.90,10.0,Calm,Calm,-,N/A,,Overcast,0,2013-06-15 13:51:00
9:11 AM,53.6,48.2,82,29.89,10.0,Calm,Calm,-,N/A,,Overcast,0,2013-06-15 14:11:00
9:32 AM,55.4,48.2,77,29.89,10.0,ENE,4.6,-,N/A,,Overcast,70,2013-06-15 14:32:00
9:51 AM,55.4,48.2,77,29.87,10.0,ENE,5.8,-,N/A,,Overcast,60,2013-06-15 14:51:00
10:11 AM,55.4,48.2,77,29.89,10.0,Calm,Calm,-,N/A,,Overcast,0,2013-06-15 15:11:00
10:32 AM,55.4,48.2,77,29.89,10.0,Calm,Calm,-,N/A,,Overcast,0,2013-06-15 15:32:00
10:51 AM,55.4,48.2,77,29.88,10.0,Calm,Calm,-,N/A,,Overcast,0,2013-06-15 15:51:00
11:11 AM,57.2,48.2,72,29.89,10.0,Calm,Calm,-,N/A,,Overcast,0,2013-06-15 16:11:00
11:32 AM,59.0,51.8,77,29.89,10.0,SE,6.9,-,N/A,,Mostly Cloudy,140,2013-06-15 16:32:00
11:51 AM,59.0,50.0,72,29.89,10.0,ESE,3.5,-,N/A,,Mostly Cloudy,110,2013-06-15 16:51:00
12:11 PM,59.0,48.2,67,29.88,10.0,SE,4.6,-,N/A,,Mostly Cloudy,140,2013-06-15 17:11:00
12:31 PM,60.8,50.0,68,29.87,10.0,Calm,Calm,-,N/A,,Scattered Clouds,0,2013-06-15 17:31:00
12:51 PM,60.8,48.2,63,29.87,10.0,SE,5.8,-,N/A,,Scattered Clouds,130,2013-06-15 17:51:00
1:12 PM,60.8,48.2,63,29.88,10.0,SE,3.5,-,N/A,,Scattered Clouds,140,2013-06-15 18:12:00
1:31 PM,60.8,46.4,59,29.88,10.0,SSE,5.8,-,N/A,,Scattered Clouds,150,2013-06-15 18:31:00
1:51 PM,55.4,42.8,63,29.89,10.0,SE,4.6,-,N/A,,Clear,130,2013-06-15 18:51:00
2:12 PM,57.2,44.6,63,29.89,10.0,SE,3.5,-,N/A,,Clear,140,2013-06-15 19:12:00
2:31 PM,57.2,46.4,67,29.88,10.0,Calm,Calm,-,N/A,,Clear,0,2013-06-15 19:31:00
2:51 PM,59.0,46.4,63,29.87,10.0,Calm,Calm,-,N/A,,Clear,0,2013-06-15 19:51:00
3:12 PM,62.6,50.0,63,29.86,10.0,Calm,Calm,-,N/A,,Clear,0,2013-06-15 20:12:00
3:31 PM,64.4,51.8,64,29.85,10.0,Calm,Calm,-,N/A,,Clear,0,2013-06-15 20:31:00
3:51 PM,66.2,53.6,64,29.85,10.0,Calm,Calm,-,N/A,,Clear,0,2013-06-15 20:51:00
4:12 PM,66.2,53.6,64,29.83,10.0,ESE,3.5,-,N/A,,Clear,110,2013-06-15 21:12:00
4:31 PM,62.6,50.0,63,29.84,10.0,SSE,3.5,-,N/A,,Clear,160,2013-06-15 21:31:00
4:51 PM,60.8,48.2,63,29.85,10.0,Calm,Calm,-,N/A,,Clear,0,2013-06-15 21:51:00
5:12 PM,55.4,44.6,67,29.85,10.0,Calm,Calm,-,N/A,,Clear,0,2013-06-15 22:12:00
5:31 PM,55.4,44.6,67,29.83,10.0,Calm,Calm,-,N/A,,Clear,0,2013-06-15 22:31:00
5:51 PM,57.2,48.2,72,29.82,10.0,Calm,Calm,-,N/A,,Scattered Clouds,0,2013-06-15 22:51:00
6:11 PM,62.6,53.6,72,29.81,10.0,Calm,Calm,-,N/A,,Clear,0,2013-06-15 23:11:00
6:31 PM,68.0,57.2,68,29.80,10.0,SW,5.8,-,N/A,,Clear,230,2013-06-15 23:31:00
6:51 PM,69.8,59.0,68,29.80,10.0,WSW,3.5,-,N/A,,Clear,240,2013-06-15 23:51:00
7:11 PM,69.8,59.0,68,29.80,10.0,South,8.1,-,N/A,,Clear,190,2013-06-16 00:11:00
7:31 PM,69.8,59.0,68,29.80,10.0,SSW,6.9,-,N/A,,Clear,210,2013-06-16 00:31:00
7:51 PM,68.0,59.0,73,29.80,10.0,SW,4.6,-,N/A,,Clear,230,2013-06-16 00:51:00
8:11 PM,66.2,57.2,73,29.80,10.0,SSW,4.6,-,N/A,,Clear,200,2013-06-16 01:11:00
8:31 PM,64.4,57.2,77,29.80,10.0,WSW,3.5,-,N/A,,Clear,240,2013-06-16 01:31:00
8:51 PM,62.6,57.2,82,29.80,10.0,Calm,Calm,-,N/A,,Clear,0,2013-06-16 01:51:00
9:11 PM,60.8,55.4,82,29.80,10.0,Calm,Calm,-,N/A,,Clear,0,2013-06-16 02:11:00
9:31 PM,57.2,51.8,82,29.80,10.0,Calm,Calm,-,N/A,,Clear,0,2013-06-16 02:31:00
9:51 PM,55.4,51.8,88,29.81,7.0,Calm,Calm,-,N/A,,Clear,0,2013-06-16 02:51:00
10:11 PM,55.4,51.8,88,29.81,10.0,West,3.5,-,N/A,,Clear,280,2013-06-16 03:11:00
10:31 PM,55.4,48.2,77,29.81,10.0,WNW,3.5,-,N/A,,Clear,290,2013-06-16 03:31:00
10:51 PM,57.2,48.2,72,29.81,10.0,West,3.5,-,N/A,,Clear,280,2013-06-16 03:51:00
11:11 PM,59.0,46.4,63,29.81,10.0,West,4.6,-,N/A,,Clear,270,2013-06-16 04:11:00
11:31 PM,57.2,46.4,67,29.80,10.0,West,5.8,-,N/A,,Clear,270,2013-06-16 04:31:00
11:52 PM,59.0,46.4,63,29.81,10.0,West,5.8,-,N/A,,Clear,280,2013-06-16 04:52:00